ATLAS 5 CENTAUR DEB, 46647

Orbit data source: Space-Track

ATLAS 5 CENTAUR DEB, 46647 is space debris in HEO originally from a launch on Wed, 17 Sep 2014 UTC launched from the Air Force Eastern Test Range (AFETR). Debris objects in space refer to the collection of defunct objects orbiting the Earth. Examples of debris include non-operational satellites, rocket bodies, and fragments generated from explosions, collisions, or faulty payload assembly.

Loading next visibility...
Identifier
46647, 2014-055CX
Orbit
HEO
Country
Flag of USUS
Related business
Flag of USUnited Launch Alliance/Lockheed Martin (US)
Manufacturer
Unknown
Mission
Spacecraft
Bus & Motor
Unknown
Mass
Unknown
Launch date (UTC)
2014-09-17 (11 years ago)
Launch vehicle
Unknown
Launch site
Air Force Eastern Test Range (AFETR)
Object type
Payload
Rocket body
Debris
Shape & HBR
Unknown shape, 1.1 m
Radar Cross Section
RCS unknown

Expand to show TLE details & history
Last TLE update: 1 day ago

TLE from 1 day ago
0 ATLAS 5 CENTAUR DEB
1 46647U 14055CX  25286.33055251 -.00000014  00000-0  00000-0 0  9995
2 46647  19.5508 171.3001 4865852 115.3053 302.0732  1.84054859 33632
Epoch: 2025-10-13T07:55Z
TLE epoch observation values (Epoch: 2025-10-13T07:55:59.736Z)
Latitude
-0°
Longitude
30.21267°
Altitude
20,725.505 km
Speed
3.904 km/s
True Right ascension
11h 25m 23s
True Declination
0° 00' 00"
Sunlit
Object was in daylight at epoch
Visualization orbit readout
Latitude
Unknown
Longitude
Unknown
Altitude
Unknown
Speed
Unknown
Apparent Right ascension
Unknown
Apparent Declination
Unknown
Sunlit
N/A
Visualization observer readout
Local Sidereal Time
12:40:49
Azimuth
Unknown
Elevation
Unknown
Doppler factor
Unknown
Orbital elements
Apogee altitude
35,436.073 km
Perigee altitude
8,063.036 km
Semi-major axis
28,127.691 km
Eccentricity
0.48659
Inclination
19.5508°
RAAN
171.3001°
Arg. of periapsis
115.3053°
True anomaly
244.68455°
Mean anomaly
302.0732°
Eccentric anomaly
274.27136°
Mean motion
0.46009 °/min
Orbital period
782.46 mins
BSTAR
0
Loading maneuver chart data...
Computing Atmospheric mass density...

Documentation

Showing up to 5 results
|